Tracking 19575 objects as of 18-Feb-2019
HD Live streaming from Space Station
objects crossing your sky now

COSMOS 737

Track COSMOS 737 now!
10-day predictions
COSMOS 737 is classified as:


NORAD ID: 7826
Int'l Code: 1975-045F
Perigee: 1,477.6 km
Apogee: 1,535.5 km
Inclination: 74.0 °
Period: 116.0 minutes
Semi major axis: 7877 km
RCS: 0.701 m2 (medium)
Launch date: May 28, 1975
Source: Commonwealth of Independent States (former USSR) (CIS)
Launch site: PLESETSK MISSILE AND SPACE COMPLEX (PKMTR)
aabbcc
Your satellite tracking list
Your tracking list is empty




NASA's NSSDC Master Catalog

Two Line Element Set (TLE):
1  7826U 75045F   19048.92211556 -.00000002 +00000-0 +98256-4 0  9994
2  7826 074.0145 229.8552 0036753 052.9180 059.4491 12.41705942982149
Source of the keplerian elements: AFSPC